Wenatchee, WA
on Tuesday, December 18, 2012

Tuesday
Previous Day Next Day
Daily Summary
 ActualAverageRecord
Temperature
Mean Temperature °F 25°F  
Max Temperature 32°F 31°F 52°F (1976)
Min Temperature 19°F 19°F -3°F (1964)
Degree Days
Heating Degree Days 39 40  
Month to date heating degree days 572 697  
Since 1 July heating degree days 2187 2579  
Cooling Degree Days 0 0  
Month to date cooling degree days 0 0  
Year to date cooling degree days 294 249  
Moisture
Dew Point 20°F   
Average Humidity 81    
Maximum Humidity 89    
Minimum Humidity 67    
Precipitation
Precipitation T in 0.08 in 0.28 in (1960)
Month to date precipitation 1.76 1.49  
Year to date precipitation 22.30 16.04  
Snow
Snow T in 0.60 in in ()
Month to date snowfall 11.8 9.0  
Since 1 July snowfall 19.0 16.9  
Snow Depth 2.00 in   
Wind
Wind Speed 4 mph   
Max Wind Speed 13 mph   
Max Gust Speed mph   
Visibility 10 miles   
Events     

Key: T is trace of precipitation, MM is missing value
Source: NWS Daily Summary
Time(PST)TemperatureDew PointHumidity Pressure Visibility Wind DirectionWind SpeedGust SpeedPrecipitationEvents Conditions
12:55 AM 27.0°F 23.0°F 85% 29.85 in 10.0 miles WSW 4.6 mph - N/A   Clear
1:55 AM 23.0°F 19.0°F 85% 29.86 in 10.0 miles West 8.1 mph - N/A   Clear
2:55 AM 28.0°F 19.0°F 69% 29.85 in 10.0 miles WNW 10.4 mph - N/A   Clear
3:55 AM 28.9°F 19.0°F 67% 29.85 in 10.0 miles NW 12.7 mph - N/A   Clear
4:55 AM 28.9°F 19.9°F 69% 29.86 in 10.0 miles Variable 4.6 mph - N/A   Clear
5:55 AM 26.1°F 19.9°F 78% 29.88 in 10.0 miles Calm Calm - N/A   Clear
6:55 AM 23.0°F 19.9°F 88% 29.89 in 10.0 miles Calm Calm - N/A   Clear
7:55 AM 21.9°F 18.0°F 85% 29.91 in 10.0 miles East 4.6 mph - N/A   Clear
8:55 AM 23.0°F 19.0°F 85% 29.92 in 10.0 miles Calm Calm - N/A   Mostly Cloudy
9:55 AM 25.0°F 21.9°F 88% 29.93 in 10.0 miles SSW 3.5 mph - N/A   Clear
10:55 AM 27.0°F 21.9°F 81% 29.93 in 10.0 miles Calm Calm - N/A   Clear
11:55 AM 28.0°F 21.9°F 78% 29.92 in 10.0 miles SSE 3.5 mph - N/A   Clear
12:55 PM 30.0°F 21.9°F 72% 29.91 in 10.0 miles Calm Calm - N/A   Clear
1:55 PM 30.9°F 23.0°F 72% 29.92 in 10.0 miles Calm Calm - N/A   Clear
2:55 PM 30.9°F 21.9°F 69% 29.92 in 10.0 miles Calm Calm - N/A   Clear
3:55 PM 27.0°F 21.0°F 78% 29.93 in 10.0 miles WNW 3.5 mph - N/A   Clear
4:55 PM 24.1°F 19.9°F 84% 29.95 in 10.0 miles Calm Calm - N/A   Clear
5:55 PM 23.0°F 19.9°F 88% 29.97 in 10.0 miles Calm Calm - N/A   Clear
6:55 PM 21.9°F 19.0°F 89% 29.99 in 10.0 miles Calm Calm - N/A   Clear
7:55 PM 21.0°F 18.0°F 88% 30.00 in 10.0 miles Calm Calm - N/A   Clear
8:55 PM 19.0°F 16.0°F 88% 30.01 in 10.0 miles Calm Calm - N/A   Clear
9:55 PM 19.0°F 16.0°F 88% 30.02 in 10.0 miles Calm Calm - N/A   Clear
10:55 PM 21.0°F 18.0°F 88% 30.02 in 10.0 miles Calm Calm - N/A   Scattered Clouds
11:55 PM 18.0°F 14.0°F 84% 30.03 in 9.0 miles Calm Calm - N/A   Partly Cloudy
Moon Phase
Dec. 18 Dec. 20 Dec. 28 Jan. 04 Jan. 11
Sunrise:07:44 AM (PST) Moon Rise:11:03 AM (PST)12/18
Sunset:04:11 PM (PST) Moon Set:11:08 PM (PST)12/18

Copyright © 2014 The Weather Underground, Inc.